C/2020 V2 ( ZTF )

Japanese version
Home page
Updated on July 24, 2022

---------------------------------------------------------------------

* Profile

Discovery Date November 2, 2020
Magnitude 19.0 mag
Discoverer Zwicky Transient Facility

* Pictures

* Orbital Elements

Epoch 2022 Jan. 21.0 TT = JDT 2459600.5
T 2023 May 8.49270 TT                                   Rudenko
q   2.2282569            (2000.0)            P               Q
z  -0.0005397      Peri.  162.40080     +0.69768983     +0.59419144
 +/-0.0000009      Node   212.36104     +0.53377341     -0.05855830
e   1.0012027      Incl.  131.60872     +0.47782303     -0.80218917
From 1206 observations 2020 Apr. 18-2022 Feb. 1, mean residual 0".3.

* Finding Charts

* Magnitudes Graph

        m1 = -19.4 + 5 log d + 35   log r  [    ,-910]  (             - 2020 Nov.  9)
        m1 =   4.0 + 5 log d + 10.0 log r  [-910,    ]  (2020 Nov.  9 -             )

---------------------------------------------------------------------

The orbital elements are published on M.P.E.C. 2022-C56.
The charts are made with StellaNavigator Ver.10 (AstroArts).
The magnitudes graphs are made with Comet for Windows.

---------------------------------------------------------------------

Copyright(C) Seiichi Yoshida (comet@aerith.net). All rights reserved.